Location: Ca�n Batista
(41.4099°N, 1.7752°E)
Time: 14:08:27
(UTC+00:00)

CSL-04 Rocket - Pass Details

Date: 03 March 2021
Orbit: 805 x 860 km, 98.9° (Epoch: 21 April)

Event Time Altitude Azimuth Distance (km) Brightness Sun altitude
Rises 18:20:45 0° 143° (SE) 3,424 6.5 -7.3°
Reaches altitude 10° 18:23:15 10° 136° (SE) 2,490 5.8 -7.8°
Maximum altitude 18:28:22 40° 68° (ENE) 1,244 4.2 -8.7°
Drops below altitude 10° 18:33:28 10° 1° (N) 2,487 6.1 -9.7°
Sets 18:35:57 0° 354° (N) 3,419 6.9 -10.2°
